[[{"header":{"parameterUnit":"m.s-1","parameterCategory":1,"la1":30.2991,"la2":30.254,"lo1":-89.0895,"lo2":-89.0444,"dy":0.0017,"dx":0.0017,"nx":28,"ny":28,"refTime":"2024-12-10T03:00:00:Z","depth":0,"parameterNumber":2,"parameterNumberName":"U-component_of_WINDS"},"data":[0,0,0,0,0,0,0,0,0,0,0,0,0,0,0,0,0,0,0,0,0,0,0,0,0,0,0,0,0,0,0,0,0,0,0,0,0,0,0,0,0,0,0,0,0,0,0,0,0,0,0,0,0,0,0,0,0,0,-0.6323,-0.6323,0,-0.6335,-0.6336,-0.6336,-0.6353,-0.6353,-0.6354,-0.6354,-0.6367,-0.6367,-0.6367,0,0,0,0,0,0,0,0,0,0,0,0,0,-0.6313,-0.6313,-0.6323,-0.6323,-0.6323,-0.6335,-0.6336,-0.6336,-0.6353,-0.6353,-0.6354,-0.6354,-0.6367,-0.6367,-0.6367,0,0,0,0,0,0,0,0,0,0,0,0,0,-0.632,-0.6313,-0.6323,-0.6333,-0.6334,-0.6335,-0.6336,-0.6336,-0.6353,-0.6353,-0.6354,-0.6354,-0.6367,-0.6367,-0.6367,-0.6359,0,0,-0.6367,-0.6367,0,0,0,0,0,0,0,0,-0.632,-0.6321,-0.6331,-0.6332,-0.6334,-0.6343,-0.6337,-0.6343,-0.6353,-0.6346,-0.6354,-0.6355,-0.6359,-0.6359,-0.6361,-0.6359,-0.636,-0.6367,-0.6367,-0.6367,-0.6367,0,0,0,0,0,0,0,-0.6319,-0.632,-0.6328,-0.6332,-0.6333,-0.6337,-0.6339,-0.6338,-0.635,-0.6346,-0.6348,-0.6349,-0.6359,-0.6361,-0.6361,-0.636,-0.6367,-0.6367,-0.6367,-0.6367,-0.6352,-0.6351,0,0,0,0,0,0,-0.6317,-0.632,-0.6327,-0.6328,-0.6328,-0.6337,-0.6339,-0.634,-0.635,-0.6352,-0.6349,-0.635,-0.636,-0.6361,-0.6362,-0.6352,-0.6367,-0.6367,-0.6368,-0.6352,-0.6351,-0.6351,0,0,0,0,0,0,-0.6317,-0.6318,-0.6327,-0.6324,-0.6326,-0.6337,-0.6338,-0.634,-0.6341,-0.6351,-0.6353,-0.6348,-0.6361,-0.6362,-0.6359,-0.6353,-0.6368,-0.6368,-0.6353,-0.6352,-0.6351,-0.6333,0,0,0,0,0,0,-0.6317,-0.6318,-0.6315,-0.6324,-0.6326,-0.6324,-0.6337,-0.634,-0.6341,-0.6343,-0.6351,-0.6353,-0.6361,-0.6359,-0.6359,-0.6353,-0.6368,-0.6353,-0.6352,-0.6351,-0.6334,-0.6331,-0.6329,0,0,0,0,0,-0.6316,-0.6309,-0.6315,-0.6315,-0.6322,-0.6324,-0.6325,-0.6334,-0.6341,-0.6338,-0.6344,-0.6353,-0.6353,-0.6359,-0.6359,-0.6353,-0.6354,-0.6353,-0.6351,-0.6335,-0.6332,-0.6329,0,0,0,0,0,0,-0.6299,-0.6311,-0.6317,-0.6313,-0.6317,-0.6327,-0.6323,-0.6331,-0.6333,-0.6335,-0.6346,-0.6348,-0.6344,-0.6348,-0.6354,-0.6345,-0.6355,-0.6354,-0.6342,-0.6339,-0.6337,-0.6336,-0.6368,0,0,0,0,0,-0.6295,-0.6295,-0.6305,-0.63,-0.6302,-0.6312,-0.6313,-0.632,-0.6325,-0.6327,-0.6333,-0.6338,-0.6339,-0.634,-0.6341,-0.6335,-0.6336,-0.6331,-0.6328,-0.6327,-0.6325,-0.6321,-0.6318,-0.6347,-0.6347,-0.6347,0,0,-0.6286,-0.6292,-0.6292,-0.6297,-0.6301,-0.6301,-0.6314,-0.6313,-0.6313,-0.6327,-0.6325,-0.633,-0.6335,-0.633,-0.6329,-0.6334,-0.6318,-0.6325,-0.6323,-0.6323,-0.632,-0.6317,-0.6314,-0.6347,-0.6347,-0.6347,0,0,-0.6269,-0.6275,-0.6271,-0.6275,-0.6281,-0.6287,-0.6286,-0.6295,-0.6298,-0.6297,-0.6307,-0.6307,-0.6309,-0.6312,-0.6314,-0.6298,-0.6306,-0.6298,-0.6286,-0.6282,-0.6279,-0.6277,-0.6271,-0.6268,-0.6297,-0.6297,-0.6297,0,-0.6258,-0.6257,-0.6268,-0.6266,-0.6268,-0.6281,-0.6276,-0.628,-0.6286,-0.6287,-0.6293,-0.6295,-0.63,-0.6295,-0.6291,-0.6293,-0.6292,-0.6297,-0.6279,-0.6277,-0.6275,-0.6269,-0.6267,-0.6296,-0.6296,-0.6296,-0.6296,0,-0.6242,-0.6242,-0.6238,-0.6243,-0.6245,-0.6242,-0.6251,-0.6251,-0.6258,-0.6264,-0.6261,-0.6268,-0.627,-0.627,-0.6277,-0.6266,-0.6269,-0.6277,-0.6287,-0.6271,-0.6266,-0.6263,-0.6295,-0.6295,-0.6295,-0.6296,0,0,-0.6215,-0.6226,-0.6224,-0.6226,-0.6234,-0.6234,-0.6231,-0.6234,-0.6233,-0.6237,-0.6234,-0.6236,-0.6242,-0.6245,-0.6252,-0.6248,-0.6234,-0.6256,-0.6257,-0.6251,-0.6222,-0.6215,-0.6212,-0.6239,-0.6239,-0.6239,-0.6221,0,-0.6199,-0.6195,-0.6204,-0.6198,-0.6197,-0.6209,-0.6207,-0.6211,-0.6216,-0.6216,-0.6222,-0.6222,-0.6232,-0.6233,-0.623,-0.6236,-0.6228,-0.6238,-0.6236,-0.6236,-0.6234,-0.6209,-0.6203,-0.6185,-0.6219,-0.6218,-0.6218,0,-0.618,-0.6182,-0.6176,-0.6183,-0.6183,-0.6181,-0.6183,-0.6183,-0.6188,-0.6192,-0.6194,-0.6202,-0.62,-0.621,-0.6206,-0.6213,-0.6213,-0.6216,-0.6215,-0.6215,-0.6226,-0.6207,-0.618,-0.6177,-0.6215,-0.6215,-0.6215,0,-0.616,-0.6161,-0.6157,-0.6159,-0.6167,-0.6165,-0.6169,-0.6174,-0.6174,-0.6177,-0.6177,-0.6179,-0.618,-0.6181,-0.619,-0.6197,-0.6184,-0.6196,-0.6187,-0.6187,-0.6183,-0.6183,-0.6155,-0.6185,-0.6185,-0.6185,-0.6185,0,-0.614,-0.6136,-0.6148,-0.6145,-0.614,-0.6151,-0.6145,-0.615,-0.6154,-0.6152,-0.6163,-0.6161,-0.6173,-0.6172,-0.6179,-0.6174,-0.6175,-0.6177,-0.6179,-0.6176,-0.6175,-0.6175,-0.6176,-0.6185,-0.6185,-0.6185,-0.6185,0,-0.6116,-0.6125,-0.6121,-0.6129,-0.6131,-0.6126,-0.6133,-0.6131,-0.6137,-0.6134,-0.6134,-0.6144,-0.6143,-0.6152,-0.6153,-0.6158,-0.615,-0.6154,-0.6148,-0.6149,-0.6139,-0.6139,-0.6109,-0.6105,-0.6139,-0.6138,-0.6138,0,-0.6103,-0.61,-0.6107,-0.6106,-0.6109,-0.6108,-0.6109,-0.6119,-0.6119,-0.6124,-0.612,-0.6121,-0.6122,-0.612,-0.6127,-0.6128,-0.6132,-0.6121,-0.6132,-0.6128,-0.613,-0.613,-0.6129,-0.6118,-0.6118,-0.6118,-0.6117,0,-0.6078,-0.6082,-0.6083,-0.6084,-0.6084,-0.6086,-0.6088,-0.6087,-0.6098,-0.6098,-0.6097,-0.6098,-0.6099,-0.6099,-0.6101,-0.6104,-0.6112,-0.6114,-0.6112,-0.6108,-0.6104,-0.6105,-0.614,-0.6114,-0.6115,-0.6115,-0.6115,-0.6115,-0.6059,-0.6056,-0.606,-0.606,-0.6062,-0.6064,-0.6062,-0.6067,-0.6067,-0.6069,-0.6075,-0.6073,-0.6077,-0.6081,-0.6083,-0.6081,-0.6087,-0.6084,-0.6083,-0.6082,-0.6079,-0.6105,-0.6082,-0.6082,-0.6082,-0.6082,-0.6082,0,-0.6033,-0.6037,-0.6036,-0.6039,-0.6038,-0.6046,-0.6049,-0.6048,-0.6046,-0.6049,-0.605,-0.6049,-0.6048,-0.6055,-0.6055,-0.6053,-0.6057,-0.6053,-0.6052,-0.6053,-0.6075,-0.6077,-0.605,-0.605,-0.605,-0.605,-0.605,-0.605,-0.602,-0.6015,-0.6019,-0.6015,-0.6019,-0.6017,-0.6018,-0.6019,-0.6022,-0.602,-0.6019,-0.6024,-0.6028,-0.6029,-0.6029,-0.6031,-0.603,-0.6024,-0.6027,-0.6048,-0.6051,-0.6054,-0.6055,-0.6024,-0.6024,-0.6005,-0.6005,-0.6004]},{"header":{"parameterUnit":"m.s-1","parameterCategory":1,"la1":30.2991,"la2":30.254,"lo1":-89.0895,"lo2":-89.0444,"dy":0.0017,"dx":0.0017,"nx":28,"ny":28,"refTime":"2024-12-10T03:00:00:Z","depth":0,"parameterNumber":3,"parameterNumberName":"V-component_of_WINDS"},"data":[0,0,0,0,0,0,0,0,0,0,0,0,0,0,0,0,0,0,0,0,0,0,0,0,0,0,0,0,0,0,0,0,0,0,0,0,0,0,0,0,0,0,0,0,0,0,0,0,0,0,0,0,0,0,0,0,0,0,3.2886,3.2887,0,3.3006,3.3007,3.3009,3.3007,3.3005,3.3004,3.3002,3.3125,3.313,3.3134,0,0,0,0,0,0,0,0,0,0,0,0,0,3.2654,3.2658,3.2885,3.2887,3.2888,3.3006,3.3007,3.3009,3.3007,3.3005,3.3003,3.3001,3.3123,3.3129,3.3135,0,0,0,0,0,0,0,0,0,0,0,0,0,3.2762,3.2659,3.2885,3.2902,3.2904,3.3005,3.3007,3.3009,3.3008,3.3005,3.3003,3.3,3.3122,3.3128,3.3136,3.3228,0,0,3.3157,3.316,0,0,0,0,0,0,0,0,3.2756,3.2771,3.2898,3.2901,3.2904,3.2989,3.2971,3.3083,3.3008,3.2968,3.3002,3.2999,3.3082,3.3092,3.312,3.3234,3.3239,3.3158,3.3162,3.3165,3.3167,0,0,0,0,0,0,0,3.2749,3.2766,3.2933,3.29,3.2903,3.2903,3.2916,3.2992,3.3037,3.2972,3.2972,3.2986,3.3083,3.3113,3.3123,3.3241,3.3158,3.3164,3.3169,3.3171,3.3437,3.344,0,0,0,0,0,0,3.2738,3.2759,3.2929,3.2937,3.2823,3.2909,3.2923,3.2964,3.3036,3.3045,3.2988,3.2986,3.3102,3.3114,3.3127,3.3241,3.3165,3.3172,3.3176,3.3434,3.3438,3.3441,0,0,0,0,0,0,3.2733,3.2753,3.2924,3.2848,3.287,3.2916,3.2961,3.2968,3.2998,3.3049,3.3057,3.3011,3.31,3.3117,3.3203,3.3245,3.3175,3.3182,3.3431,3.3435,3.3439,3.3469,0,0,0,0,0,0,3.2726,3.2751,3.2787,3.2849,3.2874,3.2999,3.2964,3.2972,3.301,3.3008,3.3072,3.308,3.31,3.3192,3.321,3.3254,3.3187,3.3427,3.3433,3.3438,3.3464,3.3474,3.3481,0,0,0,0,0,3.2718,3.279,3.2789,3.2809,3.292,3.3001,3.3016,3.3037,3.3013,3.305,3.3082,3.3078,3.3237,3.3201,3.3221,3.3268,3.3425,3.3431,3.3437,3.3461,3.3472,3.3481,0,0,0,0,0,0,3.2732,3.2799,3.2798,3.2892,3.2941,3.3001,3.3047,3.3048,3.3104,3.31,3.3124,3.3138,3.3225,3.3254,3.3213,3.3361,3.3328,3.3339,3.3339,3.335,3.3358,3.335,3.3193,0,0,0,0,0,3.2746,3.2807,3.2861,3.294,3.2964,3.3001,3.3038,3.305,3.3102,3.3122,3.3161,3.3211,3.3272,3.3312,3.3371,3.3468,3.3482,3.3509,3.3518,3.3525,3.3534,3.3588,3.3601,3.3461,3.3461,3.3461,0,0,3.2776,3.282,3.2857,3.2944,3.2983,3.3046,3.3019,3.3086,3.3133,3.3132,3.3217,3.3247,3.3304,3.3396,3.3438,3.3423,3.3576,3.3533,3.3538,3.3544,3.3596,3.3609,3.3621,3.3465,3.3465,3.3464,0,0,3.2862,3.2901,3.2971,3.3011,3.3071,3.3095,3.3112,3.3172,3.3192,3.3276,3.3278,3.3333,3.3438,3.3479,3.3514,3.3615,3.3614,3.3634,3.3679,3.3731,3.3743,3.3753,3.379,3.3803,3.3643,3.3643,3.3643,0,3.2892,3.2987,3.3007,3.3075,3.3114,3.3116,3.3187,3.3224,3.33,3.3327,3.3309,3.3441,3.3479,3.3582,3.3606,3.3634,3.3654,3.3628,3.3739,3.3749,3.3759,3.3795,3.3809,3.3645,3.3645,3.3644,3.3644,0,3.3021,3.3086,3.3136,3.321,3.3253,3.3322,3.3353,3.3395,3.3403,3.3429,3.3516,3.3562,3.3631,3.3655,3.3664,3.3759,3.3748,3.3734,3.3702,3.3774,3.3809,3.3823,3.3648,3.3647,3.3647,3.3646,0,0,3.3122,3.3206,3.3224,3.3257,3.3323,3.3374,3.3443,3.3511,3.3547,3.3598,3.3658,3.3746,3.3734,3.3773,3.3786,3.3831,3.3911,3.3812,3.3814,3.3831,3.402,3.4031,3.4047,3.3909,3.3912,3.3914,3.4016,0,3.3217,3.3341,3.3361,3.3469,3.353,3.3532,3.3592,3.3639,3.3665,3.3721,3.3749,3.3812,3.379,3.3814,3.3859,3.3892,3.3949,3.3884,3.3965,3.3968,3.3953,3.4065,3.4077,3.4172,3.4029,3.4032,3.4033,0,3.3345,3.3401,3.3516,3.3574,3.36,3.3654,3.3718,3.377,3.3823,3.3839,3.3883,3.389,3.3961,3.3924,3.4024,3.3979,3.4013,3.4034,3.4038,3.4048,3.4006,3.408,3.4202,3.4217,3.4054,3.4053,3.4051,0,3.341,3.3513,3.3595,3.3624,3.3693,3.3731,3.3761,3.3812,3.3851,3.3907,3.3933,3.3995,3.403,3.4078,3.4102,3.4073,3.4201,3.4165,3.4216,3.4216,3.4245,3.4243,3.4376,3.4263,3.4263,3.4263,3.4263,0,3.3515,3.3586,3.3625,3.3676,3.3755,3.3777,3.3854,3.3884,3.3929,3.3985,3.399,3.4043,3.407,3.4127,3.4146,3.4226,3.4241,3.4256,3.4261,3.4257,3.4256,3.4281,3.4276,3.4267,3.4266,3.4265,3.4264,0,3.3602,3.3631,3.3721,3.3779,3.3795,3.3851,3.39,3.3949,3.3974,3.4046,3.4064,3.4103,3.4171,3.4198,3.4281,3.4293,3.4386,3.4385,3.4369,3.4371,3.4421,3.4417,3.4577,3.4599,3.447,3.4471,3.4472,0,3.3668,3.3723,3.3786,3.3825,3.3856,3.3918,3.3958,3.3981,3.4023,3.4087,3.4129,3.4196,3.4252,3.4359,3.4395,3.4458,3.4459,3.4511,3.4469,3.4464,3.4462,3.446,3.4466,3.4519,3.4521,3.4522,3.4522,0,3.3784,3.3796,3.3854,3.3917,3.3965,3.4016,3.4066,3.4097,3.4127,3.4174,3.4243,3.4286,3.437,3.4437,3.4502,3.4533,3.4534,3.4535,3.4551,3.4549,3.4538,3.4546,3.4392,3.4532,3.4531,3.453,3.453,3.4529,3.3864,3.3913,3.3965,3.403,3.407,3.4116,3.4165,3.4196,3.4255,3.4325,3.4335,3.4409,3.446,3.4548,3.4581,3.464,3.4626,3.4648,3.4654,3.466,3.4664,3.4527,3.4651,3.4651,3.4651,3.465,3.465,0,3.3982,3.4015,3.4074,3.4144,3.4195,3.419,3.4244,3.4287,3.4353,3.44,3.4455,3.4534,3.4599,3.464,3.4705,3.4744,3.4746,3.4761,3.4759,3.4766,3.4671,3.4652,3.4758,3.4758,3.4758,3.4758,3.4758,3.4758,3.4049,3.4132,3.415,3.4252,3.4285,3.4358,3.439,3.4432,3.4471,3.4559,3.4614,3.4639,3.4685,3.4753,3.4812,3.4823,3.4847,3.4863,3.4873,3.4784,3.4773,3.4762,3.4745,3.4868,3.4868,3.4963,3.4964,3.4965]}]]